CZ-6A DEB, 56250

Orbit data source: Space-Track

CZ-6A DEB, 56250 is space debris in SSO originally from a launch on Fri, 11 Nov 2022 UTC launched from the Taiyaun Space Center, China (TSC). Debris objects in space refer to the collection of defunct objects orbiting the Earth. Examples of debris include non-operational satellites, rocket bodies, and fragments generated from explosions, collisions, or faulty payload assembly.

Loading next visibility...
Identifier
56250, 2022-151ABS
Orbit
SSO
Country
Flag of CNCN / PRC
Related business
Manufacturer
SAST
Mission
Spacecraft
Bus & Motor
Unknown
Mass
Unknown
Launch date (UTC)
2022-11-11 (4 years ago)
Launch vehicle
Unknown
Launch site
Taiyaun Space Center, China (TSC)
Object type
Payload
Rocket body
Debris
Shape & HBR
Unknown shape, 0.1 m
Radar Cross Section
Small (<0.1 m²)

Expand to show TLE details & history
Last TLE update: 1 day ago

TLE from 1 day ago
0 CZ-6A DEB
1 56250U 22151ABS 26206.02523319  .00002304  00000-0  63138-3 0  9993
2 56250  98.5574 235.3867 0087627 235.6513 123.6366 14.45880984176021
Epoch: 2026-07-25T00:36Z
TLE epoch observation values (Epoch: 2026-07-25T00:36:20.147Z)
Latitude
0.00001°
Longitude
-76.44069°
Altitude
777.018 km
Speed
7.447 km/s
True Right ascension
15h 41m 32s
True Declination
0° 00' 00"
Sunlit
Object was in daylight at epoch
Visualization orbit readout
Latitude
Unknown
Longitude
Unknown
Altitude
Unknown
Speed
Unknown
Apparent Right ascension
Unknown
Apparent Declination
Unknown
Sunlit
N/A
Visualization observer readout
Local Sidereal Time
21:12:02
Azimuth
Unknown
Elevation
Unknown
Doppler factor
Unknown
Orbital elements
Apogee altitude
798.591 km
Perigee altitude
673.909 km
Semi-major axis
7,114.387 km
Eccentricity
0.00876
Inclination
98.5574°
RAAN
235.3867°
Arg. of periapsis
235.6513°
True anomaly
124.46754°
Mean anomaly
123.6366°
Eccentric anomaly
124.05257°
Mean motion
3.6169 °/min
Orbital period
99.53 mins
BSTAR
0.00063138
Loading maneuver chart data...
Computing Atmospheric mass density...

Documentation

Showing up to 5 results
|